Hourly Data Report for August 20, 2013

All times are specified in Local Standard Time (LST). Add 1 hour to adjust for Daylight Saving Time where and when it is observed.

VICTORIA INTL A
BRITISH COLUMBIA

48°38'50.000" N
123°25'33.000" W
19.50 m
1018621
71799
YYJ

Download Data

Hourly Data (August 2013)
Hourly Data Report for August 20, 2013
Temp Definition
°C
Dew Point Temp Definition
°C
Rel Hum Definition
%
Wind Dir Definition
10's deg

Wind Spd Definition
km/h
Visibility Definition
km
Stn Press Definition
kPa
Hmdx Definition


Wind Chill Definition


Weather Definition


TIME
00:00 Legend Double Dagger 16.2 12.0 76 29 18 48.3 101.72     LegendNANA
01:00 Legend Double Dagger 15.7 11.1 74 30 14 48.3 101.73     Mostly Cloudy
02:00 Legend Double Dagger 15.0 10.9 76 29 11 48.3 101.76     LegendNANA
03:00 Legend Double Dagger 13.1 10.3 83 23 8 48.3 101.80     LegendNANA
04:00 Legend Double Dagger 11.7 10.0 89 25 7 48.3 101.83     Mostly Cloudy
05:00 Legend Double Dagger 12.2 10.5 89 25 8 48.3 101.87     LegendNANA
06:00 Legend Double Dagger 12.0 10.8 92 24 7 48.3 101.92     LegendNANA
07:00 Legend Double Dagger 13.2 11.4 89 22 5 48.3 101.96     Mainly Clear
08:00 Legend Double Dagger 16.4 11.0 70 29 6 48.3 101.99     LegendNANA
09:00 Legend Double Dagger 18.4 11.1 62 12 10 48.3 101.97     LegendNANA
10:00 Legend Double Dagger 19.1 11.0 59 10 10 48.3 101.97     Clear
11:00 Legend Double Dagger 20.0 10.0 52 5 11 48.3 101.96     LegendNANA
12:00 Legend Double Dagger 19.9 10.7 55 8 15 48.3 101.96     LegendNANA
13:00 Legend Double Dagger 21.1 10.7 51 10 13 48.3 101.93     Mainly Clear
14:00 Legend Double Dagger 21.8 10.1 47 10 12 48.3 101.90     LegendNANA
15:00 Legend Double Dagger 21.9 9.9 46 10 10 48.3 101.85     LegendNANA
16:00 Legend Double Dagger 22.1 9.4 44 10 9 48.3 101.81     Mainly Clear
17:00 Legend Double Dagger 21.6 10.0 47 12 9 48.3 101.76     LegendNANA
18:00 Legend Double Dagger 21.4 8.1 42 4 1 48.3 101.73     LegendNANA
19:00 Legend Double Dagger 17.7 10.4 62 13 5 48.3 101.71     Mainly Clear
20:00 Legend Double Dagger 16.6 10.1 65 23 2 48.3 101.74     LegendNANA
21:00 Legend Double Dagger 14.7 9.8 72 5 3 48.3 101.73     LegendNANA
22:00 Legend Double Dagger 12.4 9.6 83 24 5 48.3 101.72     Mainly Clear
23:00 Legend Double Dagger 14.0 10.1 77 24 10 48.3 101.72     LegendNANA

Notes on Data Quality.

Legend

  • E = Estimated
  • M = Missing
  • NA = Not Available
  • ‡ = Partner data that is not subject to review by the National Climate Archives
Date modified: